| time (UTC) | temp F | wind direction | speed MPH | gust MPH | rain 1hr in | rain 24hr in | rain mn in | humidity % | barometer mb |
| 20260506073052 | 38 | 334 | 1.0 | 6.0 | 0.00 | 0.00 | 0.00 | 62 | 1013.2 |
| 20260506071551 | 38 | 332 | 1.0 | 4.0 | 0.00 | 0.00 | 0.00 | 63 | 1013.2 |
| 20260506061544 | 39 | 319 | 0.0 | 4.0 | 0.00 | 0.00 | 0.00 | 63 | 1013.0 |
| 20260506044608 | 39 | 328 | 0.0 | 6.0 | 0.00 | 0.00 | 0.00 | 63 | 1012.5 |
| 20260506043032 | 39 | 325 | 1.0 | 5.0 | 0.00 | 0.00 | 0.00 | 62 | 1012.5 |
| 20260506041531 | 40 | 18 | 2.0 | 6.0 | 0.00 | 0.00 | 0.00 | 62 | 1012.5 |
| 20260506040030 | 40 | 25 | 1.0 | 7.0 | 0.00 | 0.00 | 0.00 | 61 | 1012.4 |
| 20260506034557 | 41 | 32 | 1.0 | 5.0 | 0.00 | 0.00 | 0.00 | 60 | 1012.3 |
| 20260506033032 | 41 | 26 | 1.0 | 4.0 | 0.00 | 0.00 | 0.00 | 58 | 1012.3 |
| 20260506031528 | 41 | 23 | 0.0 | 4.0 | 0.00 | 0.00 | 0.00 | 59 | 1012.2 |
| 20260506030027 | 41 | 317 | 1.0 | 5.0 | 0.00 | 0.00 | 0.00 | 57 | 1012.1 |
| 20260506024527 | 42 | 315 | 2.0 | 5.0 | 0.00 | 0.00 | 0.00 | 56 | 1012.0 |
| 20260506023024 | 42 | 327 | 0.0 | 4.0 | 0.00 | 0.00 | 0.00 | 57 | 1011.9 |
| 20260506021523 | 42 | 290 | 2.0 | 5.0 | 0.00 | 0.00 | 0.00 | 56 | 1011.8 |
| 20260506020020 | 42 | 334 | 0.0 | 4.0 | 0.00 | 0.00 | 0.00 | 56 | 1011.5 |
| 20260506014526 | 42 | 338 | 0.0 | 5.0 | 0.00 | 0.00 | 0.00 | 56 | 1011.3 |
| 20260506013017 | 42 | 318 | 1.0 | 3.0 | 0.00 | 0.00 | 0.00 | 55 | 1011.2 |
| 20260506011518 | 42 | 313 | 1.0 | 4.0 | 0.00 | 0.00 | 0.00 | 55 | 1011.0 |
| 20260506010015 | 43 | 326 | 2.0 | 8.0 | 0.00 | 0.00 | 0.00 | 54 | 1010.9 |
| 20260506004529 | 43 | 311 | 1.0 | 8.0 | 0.00 | 0.00 | 0.00 | 54 | 1010.7 |
| 20260506003020 | 43 | 325 | 0.0 | 9.0 | 0.00 | 0.00 | 0.00 | 54 | 1010.7 |
| 20260506001512 | 43 | 325 | 3.0 | 7.0 | 0.00 | 0.00 | 0.00 | 54 | 1010.6 |
| 20260506000010 | 44 | 209 | 2.0 | 8.0 | 0.00 | 0.00 | 0.00 | 53 | 1010.5 |
| 20260505234511 | 44 | 348 | 3.0 | 7.0 | 0.00 | 0.00 | 0.00 | 53 | 1010.5 |
| 20260505233010 | 45 | 310 | 3.0 | 10.0 | 0.00 | 0.00 | 0.00 | 52 | 1010.4 |
| 20260505231510 | 45 | 316 | 3.0 | 10.0 | 0.00 | 0.00 | 0.00 | 50 | 1010.4 |
| 20260505230009 | 46 | 314 | 3.0 | 9.0 | 0.00 | 0.00 | 0.00 | 51 | 1010.4 |
| 20260505224508 | 46 | 256 | 4.0 | 10.0 | 0.00 | 0.00 | 0.00 | 50 | 1010.3 |
| 20260505223005 | 46 | 271 | 3.0 | 10.0 | 0.00 | 0.00 | 0.00 | 51 | 1010.3 |
| 20260505221504 | 45 | 244 | 2.0 | 11.0 | 0.00 | 0.00 | 0.00 | 51 | 1010.2 |
| 20260505220006 | 45 | 333 | 2.0 | 7.0 | 0.00 | 0.00 | 0.00 | 53 | 1010.2 |
| 20260505214501 | 45 | 320 | 2.0 | 8.0 | 0.00 | 0.00 | 0.00 | 53 | 1010.1 |
| 20260505213104 | 45 | 332 | 3.0 | 12.0 | 0.00 | 0.00 | 0.00 | 52 | 1010.3 |
| 20260505211602 | 44 | 327 | 3.0 | 10.0 | 0.00 | 0.00 | 0.00 | 53 | 1010.1 |
| 20260505210057 | 44 | 229 | 4.0 | 9.0 | 0.00 | 0.00 | 0.00 | 52 | 1010.1 |
| 20260505204555 | 44 | 333 | 4.0 | 8.0 | 0.00 | 0.00 | 0.00 | 53 | 1010.1 |
| 20260505203055 | 44 | 334 | 3.0 | 9.0 | 0.00 | 0.00 | 0.00 | 54 | 1010.0 |
| 20260505201553 | 43 | 320 | 5.0 | 9.0 | 0.00 | 0.00 | 0.00 | 52 | 1010.1 |
| 20260505200052 | 43 | 321 | 3.0 | 10.0 | 0.00 | 0.00 | 0.00 | 53 | 1010.0 |
| 20260505194551 | 43 | 301 | 4.0 | 11.0 | 0.00 | 0.00 | 0.00 | 52 | 1009.9 |
| 20260505193055 | 43 | 328 | 3.0 | 10.0 | 0.00 | 0.00 | 0.00 | 54 | 1009.8 |
| 20260505191557 | 43 | 340 | 4.0 | 9.0 | 0.00 | 0.00 | 0.00 | 54 | 1009.9 |
| 20260505190050 | 42 | 324 | 4.0 | 11.0 | 0.00 | 0.00 | 0.00 | 53 | 1010.1 |
| 20260505184545 | 42 | 330 | 3.0 | 12.0 | 0.00 | 0.00 | 0.00 | 52 | 1009.9 |
| 20260505183045 | 42 | 303 | 5.0 | 9.0 | 0.00 | 0.00 | 0.00 | 54 | 1009.9 |
| 20260505181542 | 42 | 252 | 3.0 | 10.0 | 0.00 | 0.00 | 0.00 | 56 | 1009.8 |
| 20260505180051 | 41 | 329 | 3.0 | 12.0 | 0.00 | 0.00 | 0.00 | 57 | 1009.8 |
| 20260505174557 | 40 | 323 | 4.0 | 12.0 | 0.00 | 0.00 | 0.00 | 57 | 1009.7 |
| 20260505173040 | 40 | 253 | 5.0 | 8.0 | 0.00 | 0.00 | 0.00 | 56 | 1009.7 |
| 20260505171538 | 39 | 284 | 3.0 | 11.0 | 0.00 | 0.00 | 0.00 | 57 | 1009.7 |
| 20260505170044 | 38 | 323 | 1.0 | 8.0 | 0.00 | 0.00 | 0.00 | 59 | 1009.7 |
| 20260505164539 | 38 | 306 | 3.0 | 8.0 | 0.00 | 0.00 | 0.00 | 58 | 1009.6 |
| 20260505163038 | 38 | 321 | 2.0 | 8.0 | 0.00 | 0.00 | 0.00 | 59 | 1009.3 |
| 20260505161533 | 38 | 277 | 3.0 | 7.0 | 0.00 | 0.00 | 0.00 | 59 | 1009.3 |
| 20260505153031 | 37 | 319 | 2.0 | 12.0 | 0.00 | 0.00 | 0.00 | 61 | 1008.9 |
| 20260505151526 | 37 | 333 | 3.0 | 10.0 | 0.00 | 0.00 | 0.00 | 61 | 1008.5 |
| 20260505124507 | 36 | 294 | 3.0 | 10.0 | 0.00 | 0.00 | 0.00 | 70 | 1006.8 |
| 20260505123115 | 36 | 277 | 2.0 | 9.0 | 0.00 | 0.00 | 0.00 | 72 | 1006.6 |
| 20260505121555 | 36 | 334 | 2.0 | 8.0 | 0.00 | 0.00 | 0.00 | 71 | 1006.3 |
| 20260505120050 | 36 | 261 | 1.0 | 4.0 | 0.00 | 0.00 | 0.00 | 73 | 1006.1 |
| 20260505114609 | 36 | 253 | 4.0 | 12.0 | 0.00 | 0.00 | 0.00 | 73 | 1005.8 |
| 20260505113002 | 37 | 227 | 2.0 | 9.0 | 0.00 | 0.00 | 0.00 | 73 | 1005.7 |
| 20260505111609 | 37 | 246 | 2.0 | 10.0 | 0.00 | 0.00 | 0.00 | 73 | 1005.4 |
| 20260505101548 | 38 | 326 | 3.0 | 6.0 | 0.00 | 0.00 | 0.00 | 75 | 1004.7 |
| 20260505100048 | 38 | 277 | 1.0 | 6.0 | 0.00 | 0.00 | 0.00 | 74 | 1004.6 |
| 20260505094547 | 39 | 348 | 1.0 | 8.0 | 0.00 | 0.00 | 0.00 | 72 | 1004.5 |
| 20260505093041 | 39 | 285 | 2.0 | 6.0 | 0.00 | 0.00 | 0.00 | 71 | 1004.2 |
| 20260505091538 | 39 | 344 | 2.0 | 10.0 | 0.00 | 0.00 | 0.00 | 70 | 1004.1 |
| 20260505090042 | 39 | 327 | 1.0 | 7.0 | 0.00 | 0.00 | 0.00 | 70 | 1003.9 |
| 20260505084535 | 39 | 292 | 0.0 | 5.0 | 0.00 | 0.00 | 0.00 | 71 | 1003.7 |
| 20260505083041 | 39 | 312 | 1.0 | 5.0 | 0.00 | 0.00 | 0.00 | 70 | 1003.7 |
| 20260505081534 | 39 | 292 | 1.0 | 6.0 | 0.00 | 0.00 | 0.00 | 70 | 1003.7 |